ARIANE 2 DEB, 33556

Orbit data source: Space-Track

ARIANE 2 DEB, 33556 is space debris in HEO originally from a launch on Fri, 27 Jan 1989 UTC launched from the French Guiana (FRGUI). Debris objects in space refer to the collection of defunct objects orbiting the Earth. Examples of debris include non-operational satellites, rocket bodies, and fragments generated from explosions, collisions, or faulty payload assembly.

Loading next visibility...
Identifier
33556, 1989-006AY
Orbit
HEO
Country
Flag of FRFR
Related business
Manufacturer
EADS/LV
Mission
Spacecraft
Bus & Motor
Unknown
Mass
Unknown
Launch date (UTC)
1989-01-27 (37 years ago)
Launch vehicle
Unknown
Launch site
French Guiana (FRGUI)
Object type
Payload
Rocket body
Debris
Shape & HBR
Unknown shape, 0.2 m
Radar Cross Section
Medium (>0.1 m² and <1 m²)

Expand to show TLE details & history
Last TLE update: 20 hours ago

TLE from 20 hours ago
0 ARIANE 2 DEB
1 33556U 89006AY  26104.14657285  .00000287  00000-0  39329-2 0  9991
2 33556   9.0619 160.6351 7126565 243.3136  29.6567  2.31737422100934
Epoch: 2026-04-14T03:31Z
TLE epoch observation values (Epoch: 2026-04-14T03:31:03.894Z)
Latitude
0.00004°
Longitude
-94.14604°
Altitude
11,166.62 km
Speed
5.377 km/s
True Right ascension
10h 43m 47s
True Declination
0° 00' 00"
Sunlit
Object was in daylight at epoch
Visualization orbit readout
Latitude
Unknown
Longitude
Unknown
Altitude
Unknown
Speed
Unknown
Apparent Right ascension
Unknown
Apparent Declination
Unknown
Sunlit
N/A
Visualization observer readout
Local Sidereal Time
05:49:50
Azimuth
Unknown
Elevation
Unknown
Doppler factor
Unknown
Orbital elements
Apogee altitude
34,942.462 km
Perigee altitude
554.488 km
Semi-major axis
24,126.612 km
Eccentricity
0.71266
Inclination
9.0619°
RAAN
160.6351°
Arg. of periapsis
243.3136°
True anomaly
116.82336°
Mean anomaly
29.6567°
Eccentric anomaly
67.33581°
Mean motion
0.57916 °/min
Orbital period
621.59 mins
BSTAR
0.0039329
Loading maneuver chart data...
Computing Atmospheric mass density...
Loading historical data...
Loading historical data...
Loading historical data...
Loading historical data...
Loading historical data...
Loading historical data...
Loading historical data...

Documentation

Showing up to 5 results
|